• In Netherlands
  • List of Countries
  • For 7 days
  • Water Temperature
  • Satellite Maps
  • Weather Map
  • Weather Widgets
  • user-avatar
    Login

    Hourly Weather Konstantyna

    Today, 23 February, Thursday

    Time Temperature Precipitation Wind Pressure Humidity
    00:00 +11°C° 0 mm 1 mps 712 mmHg 66%
    01:00 +11°C° 0 mm 1 mps 712 mmHg 65%
    02:00 +10°C° 0 mm 2 mps 711 mmHg 65%
    03:00 +10°C° 0 mm 2 mps 711 mmHg 64%
    04:00 +10°C° 0 mm 2 mps 711 mmHg 65%
    05:00 +11°C° 0 mm 1 mps 711 mmHg 67%
    06:00 +10°C° 0 mm 2 mps 711 mmHg 66%
    07:00 +14°C° 0.1 mm 1 mps 711 mmHg 60%
    08:00 +18°C° 0.1 mm 1 mps 712 mmHg 54%
    09:00 +21°C° 0.1 mm 1 mps 712 mmHg 48%
    10:00 +21°C° 0 mm 2 mps 712 mmHg 42%
    11:00 +24°C° 0 mm 2 mps 712 mmHg 36%
    12:00 +26°C° 0 mm 3 mps 712 mmHg 31%
    13:00 +26°C° 0 mm 3 mps 711 mmHg 32%
    14:00 +26°C° 0 mm 3 mps 711 mmHg 33%
    15:00 +26°C° 0 mm 3 mps 710 mmHg 34%
    16:00 +22°C° 0 mm 3 mps 710 mmHg 40%
    17:00 +19°C° 0 mm 2 mps 709 mmHg 47%
    18:00 +17°C° 0 mm 2 mps 709 mmHg 54%
    19:00 +16°C° 0 mm 2 mps 709 mmHg 53%
    20:00 +16°C° 0 mm 2 mps 709 mmHg 52%
    21:00 +15°C° 0 mm 2 mps 708 mmHg 51%
    22:00 +14°C° 0 mm 3 mps 708 mmHg 50%
    23:00 +14°C° 0 mm 3 mps 707 mmHg 50%

    Tomorrow, 24 February, Friday

    Time Temperature Precipitation Wind Pressure Humidity
    00:00 +14°C° 0 mm 3 mps 707 mmHg 49%
    01:00 +14°C° 0 mm 3 mps 706 mmHg 49%
    02:00 +14°C° 0 mm 4 mps 706 mmHg 49%
    03:00 +14°C° 0 mm 4 mps 705 mmHg 49%
    04:00 +13°C° 0 mm 4 mps 705 mmHg 51%
    05:00 +12°C° 0 mm 3 mps 705 mmHg 52%
    06:00 +12°C° 0 mm 3 mps 705 mmHg 54%
    07:00 +14°C° 0 mm 3 mps 705 mmHg 49%
    08:00 +17°C° 0 mm 4 mps 706 mmHg 43%
    09:00 +20°C° 0 mm 5 mps 707 mmHg 38%
    10:00 +20°C° 0 mm 5 mps 707 mmHg 36%
    11:00 +21°C° 0 mm 5 mps 707 mmHg 34%
    12:00 +22°C° 0 mm 5 mps 707 mmHg 32%
    13:00 +21°C° 0 mm 5 mps 707 mmHg 37%
    14:00 +20°C° 0 mm 5 mps 706 mmHg 42%
    15:00 +20°C° 0 mm 5 mps 706 mmHg 47%
    16:00 +17°C° 0.1 mm 4 mps 706 mmHg 62%
    17:00 +14°C° 0.1 mm 3 mps 706 mmHg 76%
    18:00 +12°C° 0.1 mm 2 mps 707 mmHg 91%
    19:00 +12°C° 0.1 mm 2 mps 707 mmHg 92%
    20:00 +10°C° 0.1 mm 2 mps 708 mmHg 94%
    21:00 +11°C° 0.1 mm 1 mps 708 mmHg 95%
    22:00 +10°C° 0 mm 1 mps 708 mmHg 95%
    23:00 +10°C° 0 mm 1 mps 708 mmHg 95%

    Day after tomorrow, 25 February, Saturday

    Time Temperature Precipitation Wind Pressure Humidity
    00:00 +10°C° 0 mm 1 mps 708 mmHg 95%
    01:00 +10°C° 0 mm 1 mps 708 mmHg 94%
    02:00 +10°C° 0 mm 1 mps 709 mmHg 94%
    03:00 +10°C° 0 mm 1 mps 709 mmHg 93%
    04:00 +10°C° 0.1 mm 1 mps 709 mmHg 93%
    05:00 +10°C° 0.1 mm 1 mps 709 mmHg 93%
    06:00 +10°C° 0.1 mm 1 mps 710 mmHg 94%
    07:00 +10°C° 0.1 mm 1 mps 710 mmHg 91%
    08:00 +10°C° 0.1 mm 2 mps 711 mmHg 89%
    09:00 +10°C° 0.1 mm 2 mps 711 mmHg 86%
    10:00 +10°C° 0.1 mm 2 mps 711 mmHg 85%
    11:00 +10°C° 0.1 mm 2 mps 711 mmHg 83%
    12:00 +10°C° 0.1 mm 3 mps 711 mmHg 81%
    13:00 +11°C° 0.1 mm 3 mps 711 mmHg 76%
    14:00 +11°C° 0.1 mm 3 mps 711 mmHg 70%
    15:00 +12°C° 0.1 mm 4 mps 711 mmHg 65%
    16:00 +10°C° 0 mm 3 mps 711 mmHg 73%
    17:00 +8°C° 0 mm 2 mps 711 mmHg 81%
    18:00 +6°C° 0 mm 2 mps 711 mmHg 89%
    19:00 +5°C° 0 mm 2 mps 711 mmHg 91%
    20:00 +5°C° 0 mm 1 mps 712 mmHg 93%
    21:00 +4°C° 0 mm 1 mps 712 mmHg 95%
    22:00 +4°C° 0 mm 1 mps 712 mmHg 95%
    23:00 +4°C° 0 mm 1 mps 712 mmHg 95%

    26 February, Sunday

    Time Temperature Precipitation Wind Pressure Humidity
    00:00 +4°C° 0 mm 1 mps 712 mmHg 95%
    01:00 +3°C° 0 mm 1 mps 712 mmHg 95%
    02:00 +3°C° 0 mm 1 mps 711 mmHg 95%
    03:00 +3°C° 0 mm 1 mps 711 mmHg 95%
    04:00 +2°C° 0 mm 1 mps 711 mmHg 95%
    05:00 +2°C° 0 mm 1 mps 711 mmHg 95%
    06:00 +1°C° 0 mm 1 mps 711 mmHg 95%
    07:00 +5°C° 0 mm 1 mps 712 mmHg 82%
    08:00 +7°C° 0 mm 0 mps 713 mmHg 70%
    09:00 +10°C° 0 mm 0 mps 713 mmHg 57%
    10:00 +13°C° 0 mm 1 mps 713 mmHg 51%
    11:00 +14°C° 0 mm 1 mps 713 mmHg 44%
    12:00 +15°C° 0 mm 1 mps 713 mmHg 38%
    13:00 +15°C° 0 mm 2 mps 712 mmHg 40%
    14:00 +15°C° 0 mm 2 mps 712 mmHg 42%
    15:00 +15°C° 0 mm 2 mps 711 mmHg 44%
    16:00 +12°C° 0 mm 2 mps 711 mmHg 58%
    17:00 +9°C° 0 mm 2 mps 711 mmHg 72%
    18:00 +7°C° 0 mm 1 mps 711 mmHg 86%
    19:00 +6°C° 0 mm 1 mps 711 mmHg 90%
    20:00 +5°C° 0 mm 1 mps 711 mmHg 93%
    21:00 +2°C° 0 mm 0 mps 711 mmHg 96%
    22:00 +2°C° 0 mm 0 mps 711 mmHg 97%
    23:00 +2°C° 0 mm 0 mps 710 mmHg 97%

    27 February, Monday

    Time Temperature Precipitation Wind Pressure Humidity
    00:00 +2°C° 0 mm 0 mps 710 mmHg 97%
    01:00 +2°C° 0 mm 0 mps 710 mmHg 97%
    02:00 +3°C° 0 mm 1 mps 710 mmHg 96%
    03:00 +3°C° 0 mm 1 mps 709 mmHg 96%
    04:00 +3°C° 0 mm 1 mps 709 mmHg 96%
    05:00 +3°C° 0 mm 1 mps 709 mmHg 95%
    06:00 +2°C° 0 mm 1 mps 710 mmHg 95%
    07:00 +6°C° 0 mm 1 mps 710 mmHg 80%
    08:00 +9°C° 0 mm 1 mps 711 mmHg 66%
    09:00 +13°C° 0 mm 1 mps 712 mmHg 52%
    10:00 +14°C° 0 mm 1 mps 712 mmHg 44%
    11:00 +16°C° 0 mm 1 mps 711 mmHg 37%
    12:00 +17°C° 0 mm 2 mps 711 mmHg 30%
    13:00 +17°C° 0 mm 2 mps 711 mmHg 32%
    14:00 +17°C° 0 mm 2 mps 711 mmHg 33%
    15:00 +17°C° 0 mm 2 mps 710 mmHg 35%
    16:00 +13°C° 0 mm 2 mps 710 mmHg 49%
    17:00 +10°C° 0 mm 1 mps 710 mmHg 63%
    18:00 +7°C° 0 mm 1 mps 709 mmHg 78%
    19:00 +6°C° 0 mm 1 mps 709 mmHg 80%
    20:00 +5°C° 0 mm 1 mps 710 mmHg 82%
    21:00 +5°C° 0 mm 1 mps 710 mmHg 85%
    22:00 +5°C° 0 mm 1 mps 710 mmHg 83%
    23:00 +5°C° 0 mm 1 mps 710 mmHg 81%

    28 February, Tuesday

    Time Temperature Precipitation Wind Pressure Humidity
    00:00 +5°C° 0 mm 1 mps 709 mmHg 79%
    01:00 +5°C° 0 mm 1 mps 709 mmHg 78%
    02:00 +5°C° 0 mm 1 mps 709 mmHg 77%
    03:00 +5°C° 0 mm 1 mps 709 mmHg 76%
    04:00 +5°C° 0 mm 1 mps 709 mmHg 76%
    05:00 +5°C° 0 mm 1 mps 709 mmHg 76%
    06:00 +5°C° 0 mm 1 mps 709 mmHg 75%
    07:00 +9°C° 0 mm 1 mps 710 mmHg 64%
    08:00 +12°C° 0 mm 1 mps 711 mmHg 53%
    09:00 +16°C° 0 mm 1 mps 711 mmHg 42%
    10:00 +18°C° 0 mm 1 mps 711 mmHg 40%
    11:00 +20°C° 0 mm 1 mps 711 mmHg 37%
    12:00 +20°C° 0 mm 2 mps 711 mmHg 34%
    13:00 +20°C° 0 mm 2 mps 711 mmHg 35%
    14:00 +20°C° 0 mm 2 mps 711 mmHg 37%
    15:00 +20°C° 0 mm 3 mps 710 mmHg 38%
    16:00 +17°C° 0 mm 2 mps 710 mmHg 51%
    17:00 +14°C° 0 mm 2 mps 710 mmHg 65%
    18:00 +11°C° 0 mm 1 mps 709 mmHg 79%
    19:00 +9°C° 0 mm 1 mps 710 mmHg 82%
    20:00 +8°C° 0 mm 1 mps 710 mmHg 84%
    21:00 +7°C° 0 mm 1 mps 710 mmHg 87%
    22:00 +7°C° 0 mm 1 mps 710 mmHg 86%
    23:00 +7°C° 0 mm 1 mps 710 mmHg 86%
    Show more